Location: Hungerford
(51.4167°N, 1.5167°W)
Time: 17:31:13
(UTC+00:00)

Ariane Rocket - Pass Details

Date: 18 September 2020
Orbit: 760 x 770 km, 98.7° (Epoch: 31 October)

Event Time Altitude Azimuth Distance (km) Brightness Sun altitude
Exits shadow 19:49:56 - 170° (S) 2,732 5.5 -15.6°
Reaches altitude 10° 19:51:02 10° 171° (S) 2,294 5.2 -15.7°
Maximum altitude 19:56:05 72° 256° (WSW) 808 3.2 -16.4°
Drops below altitude 10° 20:01:11 10° 341° (NNW) 2,318 6.1 -17.2°
Sets 20:03:31 0° 344° (NNW) 3,250 6.9 -17.5°
